This is the latest recevied weather packets stored in our database for station/object KC5EZZ-2. If no packets are shown the sender has not sent any weather packets the latest 10 day(s).
| Time | Temp. | Humidity | Pressure | Rain* | Wind** | Luminosity | Snow |
|---|---|---|---|---|---|---|---|
| 1777960378 | 22.22° C | - | - | 0 mm | 4.92 m/s, 141° | - | - |
| 1777960078 | 22.78° C | - | - | 0 mm | 6.26 m/s, 176° | - | - |
| 1777959776 | 22.78° C | - | - | 0 mm | 5.36 m/s, 163° | - | - |
| 1777959476 | 22.78° C | - | - | 0 mm | 7.6 m/s, 170° | - | - |
| 1777959177 | 22.78° C | - | - | 0 mm | 5.36 m/s, 188° | - | - |
| 1777958874 | 22.78° C | - | - | 0 mm | 4.47 m/s, 167° | - | - |
| 1777958575 | 22.78° C | - | - | 0 mm | 6.26 m/s, 193° | - | - |
| 1777958275 | 22.78° C | - | - | 0 mm | 5.81 m/s, 177° | - | - |
| 1777957973 | 22.78° C | - | - | 0 mm | 7.15 m/s, 153° | - | - |
| 1777957673 | 22.78° C | - | - | 0 mm | 5.36 m/s, 166° | - | - |
| 1777957375 | 22.78° C | - | - | 0 mm | 5.81 m/s, 180° | - | - |
| 1777957071 | 23.33° C | - | - | 0 mm | 4.92 m/s, 170° | - | - |
| 1777956772 | 23.33° C | - | - | 0 mm | 6.71 m/s, 191° | - | - |
| 1777956472 | 23.33° C | - | - | 0 mm | 6.26 m/s, 188° | - | - |
| 1777956171 | 23.33° C | - | - | 0 mm | 6.71 m/s, 176° | - | - |
| 1777955570 | 23.33° C | - | - | 0 mm | 4.92 m/s, 187° | - | - |
| 1777955267 | 23.33° C | - | - | 0 mm | 4.92 m/s, 180° | - | - |
| 1777954968 | 23.89° C | - | - | 0 mm | 5.36 m/s, 150° | - | - |
| 1777954668 | 23.89° C | - | - | 0 mm | 5.81 m/s, 173° | - | - |
| 1777954365 | 23.89° C | - | - | 0 mm | 4.92 m/s, 194° | - | - |
| 1777954066 | 23.89° C | - | - | 0 mm | 6.26 m/s, 162° | - | - |
| 1777953767 | 23.89° C | - | - | 0 mm | 4.92 m/s, 124° | - | - |
| 1777953526 | 23.89° C | - | - | 0 mm | 5.36 m/s, 193° | - | - |
| 1777953464 | 23.89° C | - | - | 0 mm | 5.36 m/s, 193° | - | - |
| 1777953239 | 23.89° C | - | - | 0 mm | 4.92 m/s, 170° | - | - |
* Rain latest hour (hover to see other rain measurements)
** Current wind speed in m/s (hover to see current wind gust speed)